Weather in Mandrem

India     15°32′45″N   73°47′08″E
temp.,
°C
wind,
m/s
gust,
m/s
humid.,
%
clouds,
%
prec.,
mm/h
press.,
hPa
HPBL,
m
22 may, sun
sun2223:30+28sw337492 0.0 1008468
02:30+27ssw3482100 0.1 1005419
05:30+28w347932 1.1 1006519
08:30+29w347414 0.9 1007549
11:30+29wsw457289 1.3 1007724
14:30+30w667464 0.7 1005781
17:30+29w5674100 1.2 1004677
20:30+29w45815 0.4 1006430
23 may, mon
mon2323:30+28wsw457894 1.4 1006501
02:30+28w4579100 0.4 1005411
05:30+28wsw347899 1.3 1005454
08:30+29wsw4576100 0.7 1006599
11:30+29w5576100 1.1 1007753
14:30+30wnw4575100 0.1 1005751
17:30+29w447799 0.8 1005534
20:30+29w458098 1.4 1007458
24 may, tue
tue2423:30+28w348088 2.1 1007285
02:30+28w4579100 0.3 1006612
05:30+28wnw567992 1.5 1007561
08:30+29wnw447798 0.4 1009691
11:30+29w557595 0.6 1009709
14:30+30w557496 0.0 1007704
17:30+29w5576100 0.1 1007665
20:30+29w46823 0.4 1009454
25 may, wed
wed2523:30+29w56855 0.8 1010449
02:30+28wnw458259 0.1 1008439
05:30+28nw458090 0.2 1008463
08:30+29nnw45742 0.0 1010712
11:30+29wnw566911 0.0 1010672
14:30+30wnw77725 0.0 1007665
17:30+30w567516 0.0 1007742
20:30+29wnw468193 0.0 1009443
26 may, thu
thu2623:30+29wnw46808 0.1 1010421
02:30+29nw677818 0.1 1008528
05:30+28nnw467712 0.1 1008409
08:30+29n347098 0.0 1010494
11:30+29w556885 0.0 1009608
14:30+30w566789 0.0 1007601
17:30+30w457283 0.0 1007710
20:30+29w4577100 0.4 1008314